QPF
0.00 0.00 0.00 0.00 0.00 0.00 0.00 0.00 0.00 0.00 0.00 0.00 0.00 0.00 0.00 0.00 0.00 0.00 0.00 0.00 0.00 0.00 0.00 0.00 0.00 0.00 0.00 0.00 0.00 0.01 0.01 0.01 0.00 0.00 0.00 0.01 0.01 0.02 0.02 0.01 0.02 0.02 0.02 0.03 0.03 0.03 0.04 0.06 0.04
0.00 0.00 0.00 0.00 0.00 0.00 0.00 0.00 0.00 0.00 0.00 0.00 0.00 0.00 0.00 0.00 0.00 0.00 0.00 0.00 0.00 0.00 0.00 0.00 0.00 0.00 0.00 0.00 0.00 0.01 0.00 0.00 0.00 0.00 0.00 0.00 0.01 0.01 0.01 0.01 0.02 0.01 0.01 0.02 0.02 0.02 0.02 0.03 0.03
0.00 0.00 0.00 0.00 0.00 0.00 0.00 0.00 0.00 0.00 0.00 0.00 0.00 0.00 0.00 0.00 0.00 0.00 0.00 0.00 0.00 0.00 0.00 0.00 0.00 0.00 0.00 0.00 0.00 0.00 0.00 0.00 0.00 0.00 0.00 0.00 0.00 0.01 0.01 0.01 0.01 0.01 0.00 0.00 0.01 0.01 0.02 0.02 0.02
0.00 0.01 0.00 0.00 0.00 0.00 0.00 0.00 0.00 0.00 0.00 0.00 0.00 0.00 0.00 0.00 0.00 0.00 0.00 0.00 0.00 0.00 0.00 0.00 0.00 0.00 0.00 0.00 0.00 0.00 0.00 0.00 0.00 0.00 0.00 0.00 0.00 0.00 0.00 0.00 0.01 0.01 0.01 0.00 0.00 0.00 0.01 0.02 0.02
0.01 0.00 0.00 0.00 0.00 0.00 0.00 0.00 0.00 0.00 0.00 0.00 0.00 0.00 0.00 0.00 0.00 0.00 0.00 0.00 0.00 0.00 0.00 0.00 0.00 0.00 0.00 0.00 0.00 0.00 0.00 0.00 0.00 0.00 0.00 0.00 0.00 0.00 0.00 0.00 0.00 0.00 0.01 0.01 0.01 0.00 0.01 0.01 0.01
0.01 0.01 0.00 0.00 0.00 0.00 0.00 0.00 0.00 0.00 0.00 0.00 0.00 0.00 0.00 0.00 0.00 0.00 0.00 0.00 0.00 0.00 0.00 0.00 0.00 0.00 0.00 0.00 0.00 0.00 0.00 0.00 0.00 0.00 0.00 0.00 0.01 0.00 0.00 0.00 0.00 0.00 0.00 0.00 0.01 0.01 0.01 0.01 0.01
0.01 0.00 0.00 0.00 0.00 0.00 0.00 0.00 0.00 0.00 0.00 0.00 0.00 0.00 0.00 0.00 0.00 0.00 0.00 0.00 0.00 0.00 0.00 0.00 0.00 0.00 0.00 0.00 0.00 0.00 0.00 0.00 0.00 0.00 0.00 0.00 0.00 0.00 0.00 0.00 0.01 0.01 0.01 0.00 0.01 0.01 0.01 0.01 0.01
0.01 0.01 0.00 0.00 0.00 0.00 0.00 0.00 0.00 0.00 0.00 0.00 0.00 0.00 0.00 0.00 0.00 0.00 0.00 0.01 0.01 0.00 0.00 0.00 0.00 0.00 0.00 0.00 0.00 0.00 0.00 0.00 0.00 0.00 0.00 0.00 0.00 0.00 0.00 0.00 0.00 0.01 0.01 0.01 0.01 0.01 0.01 0.01 0.01
0.01 0.01 0.00 0.00 0.00 0.00 0.00 0.00 0.00 0.00 0.00 0.00 0.00 0.00 0.00 0.00 0.00 0.00 0.01 0.01 0.01 0.01 0.00 0.00 0.00 0.00 0.00 0.00 0.00 0.00 0.00 0.00 0.00 0.00 0.00 0.00 0.00 0.00 0.00 0.00 0.00 0.00 0.01 0.01 0.01 0.02 0.02 0.02 0.01
0.01 0.01 0.00 0.00 0.00 0.00 0.00 0.00 0.00 0.00 0.00 0.00 0.00 0.00 0.00 0.00 0.00 0.00 0.01 0.01 0.01 0.00 0.00 0.00 0.00 0.00 0.00 0.00 0.00 0.00 0.00 0.00 0.00 0.00 0.00 0.00 0.00 0.00 0.00 0.00 0.00 0.00 0.00 0.01 0.01 0.02 0.02 0.02 0.01
0.01 0.00 0.00 0.00 0.00 0.00 0.00 0.00 0.00 0.00 0.00 0.00 0.00 0.00 0.00 0.00 0.00 0.00 0.00 0.01 0.00 0.00 0.00 0.00 0.00 0.00 0.00 0.00 0.00 0.00 0.00 0.00 0.00 0.00 0.00 0.00 0.00 0.00 0.00 0.00 0.00 0.00 0.00 0.00 0.00 0.01 0.01 0.01 0.01
0.01 0.00 0.00 0.00 0.00 0.00 0.00 0.00 0.00 0.00 0.00 0.00 0.00 0.00 0.00 0.00 0.00 0.00 0.00 0.01 0.00 0.00 0.00 0.00 0.00 0.00 0.00 0.00 0.00 0.00 0.00 0.00 0.00 0.00 0.00 0.00 0.00 0.00 0.00 0.00 0.00 0.00 0.00 0.00 0.00 0.00 0.00 0.00 0.01
0.01 0.00 0.00 0.00 0.00 0.00 0.00 0.00 0.00 0.00 0.00 0.00 0.00 0.00 0.00 0.00 0.00 0.00 0.00 0.00 0.00 0.00 0.00 0.00 0.00 0.00 0.00 0.00 0.00 0.00 0.00 0.00 0.00 0.00 0.00 0.00 0.00 0.00 0.00 0.00 0.00 0.00 0.00 0.00 0.00 0.00 0.00 0.00 0.00
0.01 0.01 0.01 0.00 0.00 0.00 0.00 0.00 0.00 0.00 0.00 0.00 0.00 0.00 0.00 0.00 0.00 0.00 0.00 0.00 0.00 0.00 0.00 0.00 0.00 0.00 0.00 0.00 0.00 0.00 0.00 0.00 0.00 0.00 0.00 0.00 0.00 0.00 0.00 0.00 0.00 0.00 0.00 0.00 0.00 0.00 0.00 0.00 0.01
0.01 0.01 0.01 0.00 0.00 0.00 0.00 0.00 0.00 0.00 0.00 0.00 0.00 0.00 0.00 0.00 0.00 0.00 0.00 0.00 0.00 0.00 0.00 0.00 0.00 0.00 0.00 0.00 0.00 0.00 0.00 0.00 0.00 0.00 0.00 0.00 0.00 0.00 0.00 0.00 0.00 0.00 0.00 0.00 0.00 0.00 0.00 0.00 0.00
0.01 0.01 0.01 0.00 0.00 0.00 0.00 0.00 0.00 0.00 0.00 0.00 0.00 0.00 0.00 0.00 0.00 0.00 0.00 0.00 0.00 0.00 0.00 0.00 0.00 0.00 0.00 0.00 0.00 0.00 0.00 0.00 0.00 0.00 0.00 0.00 0.00 0.00 0.00 0.00 0.00 0.00 0.00 0.00 0.00 0.00 0.00 0.00 0.00
0.01 0.01 0.00 0.00 0.00 0.00 0.00 0.00 0.00 0.00 0.00 0.00 0.00 0.00 0.00 0.01 0.01 0.00 0.00 0.00 0.00 0.01 0.01 0.00 0.00 0.00 0.00 0.00 0.00 0.00 0.00 0.00 0.00 0.00 0.00 0.00 0.00 0.00 0.00 0.00 0.00 0.00 0.00 0.00 0.00 0.00 0.00 0.00 0.00
0.01 0.00 0.00 0.00 0.00 0.00 0.00 0.00 0.00 0.00 0.00 0.00 0.00 0.00 0.00 0.00 0.00 0.00 0.00 0.00 0.00 0.00 0.00 0.00 0.00 0.00 0.00 0.00 0.00 0.00 0.00 0.00 0.00 0.00 0.00 0.00 0.00 0.00 0.00 0.00 0.00 0.00 0.00 0.00 0.00 0.00 0.00 0.00 0.00
0.01 0.01 0.01 0.00 0.00 0.00 0.00 0.00 0.00 0.00 0.00 0.00 0.00 0.00 0.00 0.00 0.00 0.00 0.00 0.00 0.00 0.00 0.00 0.00 0.00 0.00 0.00 0.00 0.00 0.00 0.00 0.00 0.00 0.00 0.00 0.00 0.00 0.00 0.00 0.00 0.00 0.00 0.00 0.00 0.00 0.00 0.00 0.00 0.00
0.01 0.01 0.01 0.00 0.00 0.00 0.00 0.00 0.00 0.00 0.00 0.00 0.00 0.00 0.00 0.00 0.00 0.00 0.00 0.00 0.00 0.00 0.00 0.00 0.00 0.00 0.00 0.00 0.00 0.00 0.00 0.00 0.00 0.00 0.00 0.00 0.00 0.00 0.00 0.00 0.00 0.00 0.00 0.00 0.00 0.00 0.00 0.00 0.00
0.02 0.01 0.01 0.01 0.00 0.01 0.01 0.00 0.00 0.00 0.00 0.00 0.00 0.00 0.00 0.00 0.00 0.00 0.00 0.00 0.00 0.00 0.00 0.00 0.00 0.00 0.00 0.00 0.00 0.00 0.00 0.00 0.00 0.00 0.00 0.00 0.00 0.00 0.00 0.01 0.01 0.01 0.01 0.00 0.00 0.00 0.00 0.00 0.00
0.02 0.00 0.00 0.00 0.01 0.01 0.01 0.00 0.00 0.00 0.00 0.00 0.00 0.00 0.00 0.00 0.00 0.00 0.00 0.00 0.00 0.00 0.00 0.00 0.00 0.00 0.00 0.00 0.00 0.00 0.00 0.00 0.00 0.00 0.00 0.00 0.00 0.00 0.01 0.01 0.01 0.01 0.01 0.00 0.00 0.00 0.00 0.00 0.00
0.02 0.01 0.01 0.01 0.01 0.01 0.01 0.00 0.00 0.00 0.00 0.00 0.00 0.00 0.00 0.00 0.00 0.00 0.00 0.00 0.00 0.00 0.00 0.00 0.00 0.00 0.00 0.00 0.00 0.00 0.00 0.00 0.00 0.00 0.00 0.00 0.00 0.00 0.00 0.01 0.01 0.01 0.01 0.01 0.00 0.00 0.00 0.00 0.00
0.01 0.01 0.01 0.01 0.02 0.02 0.01 0.00 0.00 0.00 0.00 0.00 0.00 0.00 0.00 0.00 0.00 0.00 0.00 0.00 0.00 0.00 0.00 0.00 0.00 0.00 0.00 0.00 0.00 0.00 0.00 0.00 0.00 0.00 0.00 0.00 0.00 0.00 0.00 0.01 0.01 0.01 0.01 0.01 0.01 0.00 0.00 0.00 0.00
0.02 0.04 0.04 0.04 0.03 0.01 0.00 0.00 0.00 0.00 0.00 0.00 0.00 0.00 0.00 0.00 0.00 0.00 0.00 0.00 0.00 0.00 0.00 0.00 0.00 0.00 0.00 0.00 0.00 0.00 0.00 0.00 0.00 0.00 0.00 0.00 0.00 0.00 0.00 0.01 0.01 0.01 0.01 0.01 0.01 0.00 0.00 0.00 0.00
0.03 0.03 0.04 0.03 0.01 0.00 0.00 0.00 0.00 0.00 0.00 0.00 0.00 0.00 0.00 0.00 0.00 0.00 0.00 0.00 0.00 0.00 0.00 0.00 0.00 0.00 0.00 0.00 0.00 0.00 0.00 0.00 0.00 0.00 0.00 0.00 0.00 0.00 0.01 0.01 0.01 0.01 0.01 0.02 0.02 0.01 0.00 0.00 0.00
0.03 0.02 0.02 0.03 0.02 0.01 0.00 0.00 0.00 0.00 0.00 0.00 0.00 0.00 0.00 0.00 0.00 0.00 0.00 0.00 0.00 0.00 0.00 0.00 0.00 0.00 0.00 0.00 0.00 0.00 0.00 0.00 0.00 0.00 0.00 0.00 0.00 0.00 0.01 0.01 0.01 0.01 0.01 0.02 0.02 0.02 0.01 0.01 0.00
0.03 0.03 0.03 0.05 0.03 0.01 0.00 0.01 0.01 0.01 0.01 0.00 0.00 0.00 0.00 0.00 0.00 0.00 0.00 0.00 0.00 0.00 0.00 0.00 0.00 0.00 0.00 0.00 0.00 0.00 0.00 0.00 0.00 0.00 0.00 0.00 0.00 0.01 0.01 0.01 0.01 0.01 0.02 0.02 0.03 0.03 0.02 0.01 0.01
0.02 0.03 0.04 0.05 0.04 0.03 0.02 0.02 0.02 0.03 0.02 0.01 0.00 0.00 0.00 0.00 0.00 0.00 0.00 0.00 0.00 0.00 0.00 0.00 0.00 0.00 0.00 0.00 0.00 0.00 0.00 0.00 0.00 0.00 0.00 0.00 0.00 0.01 0.01 0.01 0.01 0.01 0.02 0.02 0.03 0.03 0.03 0.01 0.01
0.01 0.02 0.04 0.05 0.04 0.03 0.03 0.03 0.03 0.03 0.03 0.01 0.01 0.00 0.00 0.00 0.00 0.00 0.00 0.00 0.00 0.00 0.00 0.00 0.00 0.00 0.00 0.00 0.00 0.00 0.00 0.00 0.00 0.00 0.00 0.00 0.01 0.02 0.02 0.01 0.02 0.02 0.02 0.02 0.02 0.03 0.03 0.02 0.02
MSLP
1013.28 1013.98 1014.90 1015.93 1016.98 1017.92 1018.68 1019.22 1019.56 1019.77 1019.94 1020.16 1020.49 1020.95 1021.49 1022.05 1022.53 1022.84 1022.93 1022.78 1022.44 1021.99 1021.51 1021.08 1020.76 1020.56 1020.45 1020.38 1020.28 1020.11 1019.84 1019.47 1019.04 1018.60 1018.18 1017.83 1017.54 1017.32 1017.14 1016.97 1016.78 1016.56 1016.31 1016.04 1015.77 1015.48 1015.20 1014.92 1014.63
1013.70 1014.54 1015.56 1016.66 1017.70 1018.59 1019.26 1019.70 1019.94 1020.07 1020.18 1020.37 1020.67 1021.10 1021.61 1022.13 1022.55 1022.81 1022.86 1022.69 1022.35 1021.92 1021.48 1021.10 1020.82 1020.65 1020.56 1020.48 1020.38 1020.20 1019.94 1019.59 1019.18 1018.76 1018.38 1018.03 1017.75 1017.51 1017.29 1017.07 1016.83 1016.57 1016.29 1016.00 1015.72 1015.45 1015.18 1014.91 1014.64
1014.20 1015.17 1016.27 1017.38 1018.39 1019.20 1019.77 1020.11 1020.27 1020.33 1020.39 1020.55 1020.83 1021.24 1021.72 1022.19 1022.58 1022.79 1022.81 1022.64 1022.32 1021.93 1021.54 1021.20 1020.96 1020.81 1020.71 1020.63 1020.51 1020.32 1020.05 1019.71 1019.33 1018.94 1018.58 1018.25 1017.96 1017.69 1017.42 1017.13 1016.83 1016.51 1016.18 1015.87 1015.59 1015.32 1015.08 1014.85 1014.61
1014.74 1015.81 1016.95 1018.05 1019.00 1019.74 1020.22 1020.48 1020.57 1020.59 1020.63 1020.77 1021.04 1021.42 1021.87 1022.30 1022.64 1022.82 1022.82 1022.66 1022.37 1022.03 1021.69 1021.41 1021.20 1021.05 1020.94 1020.83 1020.67 1020.44 1020.16 1019.82 1019.46 1019.11 1018.77 1018.46 1018.16 1017.86 1017.54 1017.19 1016.82 1016.44 1016.07 1015.73 1015.44 1015.19 1014.98 1014.79 1014.59
1015.25 1016.37 1017.52 1018.60 1019.50 1020.17 1020.59 1020.80 1020.87 1020.88 1020.93 1021.07 1021.34 1021.70 1022.10 1022.49 1022.77 1022.92 1022.90 1022.75 1022.51 1022.22 1021.95 1021.71 1021.53 1021.38 1021.24 1021.07 1020.86 1020.59 1020.27 1019.92 1019.58 1019.25 1018.94 1018.65 1018.35 1018.04 1017.68 1017.28 1016.86 1016.43 1016.02 1015.66 1015.37 1015.13 1014.95 1014.78 1014.62
1015.67 1016.80 1017.94 1018.98 1019.83 1020.46 1020.86 1021.07 1021.16 1021.21 1021.30 1021.47 1021.74 1022.08 1022.44 1022.76 1022.99 1023.09 1023.07 1022.93 1022.73 1022.50 1022.28 1022.09 1021.92 1021.76 1021.58 1021.35 1021.07 1020.74 1020.38 1020.02 1019.67 1019.37 1019.09 1018.82 1018.54 1018.23 1017.86 1017.44 1016.99 1016.53 1016.10 1015.72 1015.42 1015.19 1015.01 1014.87 1014.72
1015.98 1017.09 1018.19 1019.18 1019.99 1020.61 1021.02 1021.27 1021.43 1021.56 1021.72 1021.94 1022.22 1022.54 1022.86 1023.11 1023.28 1023.33 1023.29 1023.17 1023.00 1022.83 1022.66 1022.51 1022.35 1022.17 1021.94 1021.64 1021.29 1020.90 1020.49 1020.10 1019.76 1019.47 1019.22 1018.99 1018.74 1018.44 1018.09 1017.67 1017.21 1016.74 1016.30 1015.92 1015.61 1015.37 1015.19 1015.03 1014.87
1016.20 1017.26 1018.30 1019.23 1020.02 1020.63 1021.09 1021.41 1021.67 1021.90 1022.14 1022.42 1022.73 1023.03 1023.30 1023.50 1023.60 1023.61 1023.54 1023.43 1023.29 1023.16 1023.04 1022.91 1022.76 1022.55 1022.28 1021.92 1021.50 1021.05 1020.60 1020.19 1019.84 1019.57 1019.34 1019.14 1018.93 1018.66 1018.33 1017.94 1017.49 1017.03 1016.60 1016.21 1015.89 1015.63 1015.42 1015.23 1015.04
1016.39 1017.38 1018.35 1019.22 1019.98 1020.59 1021.09 1021.50 1021.86 1022.19 1022.53 1022.87 1023.20 1023.50 1023.73 1023.87 1023.92 1023.89 1023.80 1023.69 1023.58 1023.47 1023.37 1023.26 1023.10 1022.87 1022.56 1022.15 1021.69 1021.19 1020.71 1020.28 1019.94 1019.67 1019.47 1019.29 1019.10 1018.86 1018.56 1018.19 1017.77 1017.33 1016.91 1016.52 1016.19 1015.91 1015.66 1015.42 1015.17
1016.63 1017.55 1018.43 1019.23 1019.95 1020.57 1021.10 1021.57 1022.02 1022.44 1022.85 1023.25 1023.60 1023.89 1024.09 1024.19 1024.21 1024.15 1024.05 1023.93 1023.83 1023.73 1023.64 1023.53 1023.36 1023.10 1022.76 1022.32 1021.83 1021.31 1020.82 1020.39 1020.04 1019.78 1019.58 1019.41 1019.23 1019.01 1018.72 1018.37 1017.97 1017.56 1017.15 1016.77 1016.43 1016.12 1015.83 1015.54 1015.23
1016.98 1017.82 1018.62 1019.36 1020.02 1020.62 1021.16 1021.67 1022.17 1022.65 1023.11 1023.53 1023.90 1024.18 1024.37 1024.46 1024.45 1024.38 1024.27 1024.15 1024.04 1023.94 1023.84 1023.71 1023.51 1023.23 1022.86 1022.42 1021.91 1021.40 1020.91 1020.49 1020.15 1019.88 1019.68 1019.49 1019.30 1019.07 1018.78 1018.43 1018.05 1017.65 1017.25 1016.88 1016.53 1016.20 1015.88 1015.54 1015.18
1017.47 1018.24 1018.97 1019.63 1020.24 1020.80 1021.33 1021.84 1022.34 1022.84 1023.31 1023.74 1024.11 1024.39 1024.58 1024.66 1024.66 1024.59 1024.49 1024.37 1024.24 1024.12 1023.98 1023.81 1023.57 1023.27 1022.88 1022.43 1021.94 1021.45 1020.98 1020.58 1020.24 1019.97 1019.74 1019.52 1019.29 1019.02 1018.71 1018.36 1017.97 1017.58 1017.19 1016.83 1016.48 1016.13 1015.78 1015.41 1015.01
1018.06 1018.79 1019.46 1020.06 1020.61 1021.12 1021.61 1022.09 1022.56 1023.04 1023.49 1023.90 1024.26 1024.54 1024.74 1024.84 1024.86 1024.81 1024.71 1024.59 1024.45 1024.28 1024.09 1023.86 1023.57 1023.23 1022.83 1022.38 1021.92 1021.46 1021.03 1020.64 1020.31 1020.02 1019.75 1019.48 1019.20 1018.88 1018.53 1018.15 1017.75 1017.36 1016.98 1016.63 1016.28 1015.93 1015.57 1015.18 1014.75
1018.71 1019.41 1020.03 1020.59 1021.09 1021.55 1021.99 1022.41 1022.84 1023.26 1023.66 1024.05 1024.38 1024.66 1024.87 1025.01 1025.06 1025.05 1024.97 1024.85 1024.67 1024.46 1024.20 1023.90 1023.55 1023.16 1022.74 1022.29 1021.85 1021.43 1021.03 1020.67 1020.34 1020.02 1019.71 1019.39 1019.03 1018.66 1018.26 1017.85 1017.44 1017.05 1016.68 1016.33 1015.99 1015.64 1015.28 1014.87 1014.43
1019.30 1019.98 1020.59 1021.12 1021.59 1022.01 1022.41 1022.78 1023.15 1023.51 1023.86 1024.19 1024.51 1024.79 1025.02 1025.19 1025.29 1025.32 1025.27 1025.14 1024.94 1024.67 1024.34 1023.95 1023.53 1023.09 1022.64 1022.19 1021.77 1021.37 1021.00 1020.65 1020.32 1019.98 1019.62 1019.23 1018.83 1018.39 1017.95 1017.51 1017.09 1016.71 1016.35 1016.01 1015.68 1015.34 1014.97 1014.56 1014.11
1019.77 1020.44 1021.04 1021.57 1022.03 1022.45 1022.82 1023.15 1023.47 1023.76 1024.06 1024.35 1024.64 1024.92 1025.18 1025.39 1025.54 1025.61 1025.58 1025.46 1025.23 1024.91 1024.51 1024.05 1023.56 1023.06 1022.57 1022.12 1021.70 1021.31 1020.95 1020.61 1020.26 1019.88 1019.48 1019.05 1018.59 1018.11 1017.64 1017.19 1016.78 1016.40 1016.06 1015.74 1015.42 1015.08 1014.70 1014.28 1013.82
1020.08 1020.74 1021.34 1021.88 1022.37 1022.80 1023.16 1023.48 1023.76 1024.02 1024.27 1024.52 1024.79 1025.07 1025.34 1025.59 1025.78 1025.89 1025.89 1025.77 1025.52 1025.16 1024.70 1024.18 1023.62 1023.07 1022.55 1022.08 1021.65 1021.26 1020.90 1020.54 1020.16 1019.75 1019.31 1018.84 1018.35 1017.85 1017.37 1016.93 1016.53 1016.17 1015.85 1015.54 1015.23 1014.89 1014.51 1014.07 1013.59
1020.24 1020.88 1021.49 1022.06 1022.58 1023.04 1023.43 1023.75 1024.02 1024.25 1024.47 1024.69 1024.94 1025.21 1025.50 1025.77 1026.00 1026.14 1026.16 1026.04 1025.79 1025.40 1024.90 1024.33 1023.74 1023.15 1022.60 1022.10 1021.65 1021.24 1020.85 1020.46 1020.05 1019.60 1019.13 1018.62 1018.11 1017.61 1017.14 1016.72 1016.34 1016.01 1015.71 1015.42 1015.12 1014.77 1014.37 1013.92 1013.40
1020.32 1020.93 1021.54 1022.14 1022.70 1023.20 1023.62 1023.96 1024.23 1024.45 1024.65 1024.85 1025.08 1025.34 1025.62 1025.91 1026.15 1026.31 1026.35 1026.25 1025.99 1025.59 1025.08 1024.50 1023.88 1023.27 1022.70 1022.17 1021.70 1021.25 1020.83 1020.39 1019.94 1019.45 1018.94 1018.41 1017.88 1017.39 1016.94 1016.54 1016.20 1015.90 1015.62 1015.34 1015.04 1014.68 1014.27 1013.79 1013.25
1020.41 1020.98 1021.58 1022.19 1022.77 1023.30 1023.76 1024.12 1024.40 1024.61 1024.80 1024.98 1025.19 1025.43 1025.71 1025.99 1026.24 1026.40 1026.46 1026.36 1026.12 1025.73 1025.23 1024.65 1024.04 1023.43 1022.85 1022.30 1021.80 1021.31 1020.84 1020.35 1019.84 1019.31 1018.76 1018.21 1017.67 1017.19 1016.75 1016.38 1016.06 1015.78 1015.52 1015.24 1014.93 1014.57 1014.13 1013.63 1013.07
1020.60 1021.12 1021.69 1022.28 1022.87 1023.41 1023.88 1024.25 1024.52 1024.73 1024.90 1025.07 1025.26 1025.49 1025.75 1026.02 1026.26 1026.42 1026.48 1026.40 1026.17 1025.81 1025.34 1024.79 1024.19 1023.60 1023.02 1022.47 1021.94 1021.42 1020.89 1020.35 1019.78 1019.20 1018.61 1018.04 1017.49 1017.00 1016.58 1016.21 1015.90 1015.62 1015.35 1015.07 1014.74 1014.36 1013.91 1013.40 1012.83
1020.95 1021.40 1021.92 1022.47 1023.03 1023.55 1023.99 1024.34 1024.60 1024.79 1024.95 1025.11 1025.28 1025.50 1025.74 1026.00 1026.23 1026.39 1026.45 1026.38 1026.17 1025.84 1025.40 1024.89 1024.33 1023.76 1023.20 1022.65 1022.10 1021.55 1020.98 1020.39 1019.78 1019.15 1018.53 1017.92 1017.36 1016.86 1016.41 1016.03 1015.70 1015.40 1015.10 1014.78 1014.43 1014.03 1013.58 1013.06 1012.49
1021.45 1021.83 1022.28 1022.76 1023.25 1023.70 1024.08 1024.39 1024.62 1024.79 1024.93 1025.08 1025.26 1025.47 1025.71 1025.96 1026.18 1026.33 1026.39 1026.33 1026.14 1025.84 1025.43 1024.96 1024.45 1023.91 1023.37 1022.82 1022.27 1021.70 1021.10 1020.48 1019.83 1019.17 1018.52 1017.89 1017.30 1016.77 1016.29 1015.87 1015.49 1015.13 1014.78 1014.41 1014.02 1013.59 1013.12 1012.60 1012.05
1022.05 1022.36 1022.72 1023.11 1023.50 1023.84 1024.14 1024.37 1024.55 1024.69 1024.83 1024.98 1025.17 1025.40 1025.66 1025.91 1026.14 1026.29 1026.35 1026.30 1026.12 1025.84 1025.46 1025.03 1024.54 1024.03 1023.51 1022.97 1022.42 1021.84 1021.24 1020.60 1019.94 1019.26 1018.59 1017.95 1017.33 1016.76 1016.24 1015.76 1015.30 1014.87 1014.44 1014.00 1013.55 1013.08 1012.58 1012.07 1011.52
1022.68 1022.93 1023.19 1023.46 1023.71 1023.94 1024.12 1024.26 1024.38 1024.49 1024.63 1024.80 1025.03 1025.29 1025.58 1025.87 1026.12 1026.29 1026.35 1026.31 1026.14 1025.87 1025.51 1025.09 1024.62 1024.13 1023.62 1023.09 1022.55 1021.97 1021.37 1020.74 1020.08 1019.42 1018.75 1018.10 1017.47 1016.87 1016.29 1015.73 1015.19 1014.66 1014.13 1013.61 1013.08 1012.56 1012.03 1011.51 1010.97
1023.26 1023.44 1023.61 1023.75 1023.86 1023.94 1024.00 1024.04 1024.10 1024.19 1024.33 1024.55 1024.82 1025.15 1025.50 1025.84 1026.12 1026.32 1026.40 1026.36 1026.20 1025.93 1025.57 1025.15 1024.69 1024.20 1023.69 1023.17 1022.63 1022.07 1021.49 1020.88 1020.25 1019.62 1018.97 1018.34 1017.70 1017.07 1016.45 1015.82 1015.19 1014.56 1013.93 1013.31 1012.71 1012.12 1011.55 1011.00 1010.46
1023.72 1023.85 1023.92 1023.94 1023.91 1023.85 1023.78 1023.73 1023.73 1023.80 1023.96 1024.22 1024.57 1024.97 1025.40 1025.80 1026.14 1026.38 1026.48 1026.46 1026.30 1026.02 1025.66 1025.23 1024.75 1024.26 1023.74 1023.22 1022.68 1022.13 1021.57 1021.00 1020.42 1019.83 1019.22 1018.62 1018.00 1017.36 1016.71 1016.02 1015.32 1014.60 1013.88 1013.16 1012.47 1011.82 1011.20 1010.62 1010.05
1024.03 1024.11 1024.11 1024.02 1023.86 1023.68 1023.50 1023.36 1023.31 1023.37 1023.56 1023.87 1024.29 1024.77 1025.28 1025.76 1026.16 1026.44 1026.58 1026.57 1026.41 1026.14 1025.76 1025.31 1024.82 1024.30 1023.77 1023.23 1022.69 1022.16 1021.62 1021.09 1020.55 1020.02 1019.47 1018.91 1018.32 1017.70 1017.03 1016.31 1015.56 1014.77 1013.97 1013.19 1012.42 1011.71 1011.03 1010.41 1009.81
1024.18 1024.24 1024.17 1023.99 1023.73 1023.44 1023.17 1022.97 1022.88 1022.93 1023.15 1023.51 1024.00 1024.56 1025.14 1025.69 1026.15 1026.48 1026.65 1026.66 1026.52 1026.24 1025.86 1025.39 1024.88 1024.34 1023.78 1023.23 1022.69 1022.16 1021.64 1021.14 1020.65 1020.17 1019.67 1019.16 1018.62 1018.02 1017.36 1016.64 1015.87 1015.05 1014.21 1013.37 1012.56 1011.79 1011.07 1010.40 1009.75
1024.20 1024.24 1024.12 1023.87 1023.54 1023.18 1022.84 1022.59 1022.48 1022.54 1022.78 1023.19 1023.73 1024.35 1024.99 1025.59 1026.10 1026.47 1026.67 1026.71 1026.58 1026.31 1025.93 1025.46 1024.93 1024.37 1023.80 1023.24 1022.69 1022.16 1021.65 1021.18 1020.72 1020.27 1019.83 1019.36 1018.86 1018.30 1017.67 1016.97 1016.20 1015.38 1014.53 1013.67 1012.84 1012.04 1011.28 1010.57 1009.89
Thickness
5699 5701 5701 5694 5681 5669 5675 5693 5708 5719 5725 5733 5736 5734 5729 5726 5726 5723 5732 5738 5739 5738 5738 5738 5738 5738 5738 5738 5738 5738 5738 5738 5738 5738 5739 5739 5739 5739 5739 5738 5738 5738 5738 5738 5737 5737 5736 5736 5736
5693 5694 5689 5680 5667 5660 5675 5695 5707 5718 5728 5731 5730 5727 5723 5721 5727 5728 5730 5733 5735 5734 5733 5733 5733 5733 5734 5734 5733 5733 5733 5733 5733 5733 5734 5734 5734 5734 5734 5734 5733 5733 5733 5733 5733 5732 5732 5732 5732
5687 5687 5676 5667 5662 5666 5683 5702 5709 5720 5727 5727 5721 5720 5719 5718 5723 5725 5728 5729 5729 5728 5728 5728 5728 5728 5729 5729 5728 5728 5728 5728 5728 5728 5728 5729 5729 5729 5728 5728 5728 5728 5728 5728 5727 5727 5727 5727 5727
5678 5672 5666 5658 5663 5678 5691 5704 5709 5714 5721 5722 5715 5708 5713 5721 5723 5724 5725 5724 5723 5722 5722 5722 5723 5723 5723 5723 5723 5723 5723 5723 5723 5723 5723 5723 5723 5723 5723 5722 5722 5722 5722 5722 5722 5722 5722 5722 5722
5667 5659 5653 5652 5664 5680 5692 5701 5706 5707 5712 5714 5709 5702 5705 5714 5720 5720 5719 5719 5717 5716 5716 5717 5717 5717 5717 5717 5717 5717 5717 5717 5717 5717 5717 5717 5717 5716 5716 5716 5716 5716 5717 5717 5717 5716 5717 5717 5717
5652 5649 5642 5647 5663 5679 5689 5697 5699 5700 5704 5707 5702 5695 5698 5707 5711 5712 5713 5712 5712 5711 5711 5711 5711 5711 5711 5711 5711 5711 5711 5711 5711 5711 5711 5711 5710 5710 5710 5710 5710 5710 5711 5711 5711 5711 5711 5711 5711
5644 5641 5642 5650 5660 5671 5686 5693 5691 5693 5697 5701 5701 5689 5691 5698 5704 5706 5706 5706 5705 5705 5705 5705 5705 5705 5705 5705 5704 5704 5704 5704 5704 5704 5704 5704 5703 5703 5703 5703 5703 5704 5704 5704 5704 5705 5705 5705 5705
5644 5638 5642 5648 5657 5668 5684 5689 5692 5692 5694 5700 5698 5687 5686 5694 5697 5699 5698 5697 5698 5698 5698 5698 5699 5698 5698 5698 5698 5698 5698 5697 5697 5697 5697 5697 5697 5697 5697 5697 5697 5697 5697 5698 5698 5698 5698 5699 5699
5641 5629 5634 5647 5655 5666 5678 5680 5686 5691 5690 5691 5693 5694 5696 5695 5692 5691 5689 5688 5688 5690 5691 5692 5692 5692 5692 5691 5691 5691 5690 5690 5690 5690 5690 5689 5690 5690 5690 5690 5690 5691 5691 5691 5691 5692 5692 5692 5692
5628 5624 5638 5653 5659 5664 5670 5673 5677 5679 5678 5678 5682 5686 5690 5688 5687 5685 5683 5681 5682 5682 5683 5685 5685 5685 5685 5685 5684 5684 5683 5683 5683 5683 5683 5683 5683 5683 5683 5683 5684 5684 5684 5684 5685 5685 5685 5685 5685
5626 5627 5639 5648 5656 5660 5662 5665 5671 5670 5669 5674 5676 5677 5679 5680 5680 5679 5679 5678 5678 5678 5678 5678 5679 5679 5679 5678 5677 5677 5676 5676 5676 5676 5676 5676 5676 5675 5676 5676 5676 5676 5677 5677 5677 5678 5678 5678 5678
5621 5629 5636 5642 5649 5652 5654 5658 5661 5665 5670 5676 5677 5677 5675 5673 5674 5675 5674 5673 5673 5673 5673 5672 5673 5672 5672 5672 5671 5670 5669 5669 5669 5669 5669 5669 5668 5668 5668 5668 5668 5669 5669 5669 5670 5670 5671 5671 5671
5616 5623 5631 5636 5639 5642 5646 5648 5652 5658 5665 5668 5668 5668 5668 5669 5669 5670 5670 5669 5668 5667 5667 5666 5666 5666 5665 5665 5664 5663 5663 5663 5662 5662 5662 5662 5662 5661 5661 5661 5661 5661 5662 5662 5662 5663 5663 5663 5664
5613 5617 5622 5626 5630 5635 5637 5641 5645 5653 5657 5657 5658 5659 5661 5663 5664 5663 5663 5662 5662 5662 5661 5660 5660 5660 5659 5658 5658 5657 5656 5656 5656 5656 5655 5655 5655 5655 5654 5654 5654 5654 5654 5655 5654 5655 5655 5655 5655
5607 5606 5610 5617 5622 5627 5629 5629 5638 5648 5648 5649 5650 5652 5653 5656 5658 5658 5659 5658 5658 5657 5656 5655 5654 5653 5653 5652 5651 5650 5650 5650 5649 5649 5649 5649 5648 5648 5648 5647 5647 5647 5647 5647 5647 5647 5647 5647 5647
5596 5593 5594 5610 5615 5619 5616 5618 5635 5639 5640 5640 5642 5644 5646 5649 5652 5654 5654 5653 5653 5651 5650 5649 5649 5647 5646 5645 5644 5644 5643 5643 5642 5642 5642 5642 5642 5641 5641 5640 5640 5640 5640 5639 5639 5638 5638 5638 5638
5578 5576 5584 5598 5608 5611 5609 5614 5628 5632 5634 5634 5636 5637 5640 5642 5645 5647 5649 5649 5648 5646 5645 5643 5642 5640 5639 5638 5637 5637 5636 5636 5636 5635 5635 5635 5635 5634 5634 5633 5632 5632 5631 5631 5630 5630 5629 5628 5629
5567 5570 5580 5587 5599 5601 5601 5609 5620 5623 5627 5628 5630 5631 5634 5638 5642 5643 5644 5643 5642 5640 5639 5637 5635 5634 5632 5631 5629 5628 5628 5628 5628 5628 5628 5628 5627 5627 5626 5625 5625 5624 5623 5622 5621 5620 5620 5619 5618
5569 5570 5574 5583 5593 5592 5594 5602 5612 5616 5618 5620 5622 5625 5629 5634 5638 5638 5638 5637 5635 5633 5632 5631 5629 5627 5626 5624 5622 5620 5619 5619 5620 5620 5621 5620 5620 5619 5618 5618 5617 5615 5614 5613 5612 5610 5609 5609 5608
5561 5562 5566 5576 5584 5584 5585 5593 5605 5610 5614 5618 5621 5622 5625 5627 5629 5631 5631 5630 5630 5629 5627 5625 5624 5622 5620 5619 5617 5615 5614 5612 5613 5613 5613 5613 5612 5611 5611 5609 5608 5607 5605 5604 5602 5600 5598 5597 5596
5552 5554 5559 5565 5571 5576 5577 5582 5595 5604 5609 5613 5616 5619 5622 5625 5625 5626 5625 5625 5624 5624 5623 5623 5619 5617 5615 5613 5610 5607 5605 5604 5604 5604 5604 5604 5604 5603 5602 5601 5599 5598 5596 5594 5592 5590 5588 5585 5583
5544 5555 5557 5557 5552 5550 5562 5556 5583 5593 5600 5606 5609 5611 5615 5620 5622 5622 5622 5620 5620 5620 5618 5617 5614 5611 5609 5607 5604 5602 5600 5598 5598 5597 5597 5596 5596 5595 5594 5592 5591 5589 5587 5585 5583 5581 5578 5575 5572
5540 5548 5548 5547 5542 5539 5546 5543 5569 5582 5590 5599 5603 5607 5611 5614 5617 5618 5619 5618 5617 5615 5612 5611 5608 5605 5603 5601 5599 5596 5594 5592 5591 5590 5588 5588 5587 5586 5585 5583 5582 5580 5578 5576 5574 5572 5569 5566 5563
5535 5534 5532 5526 5524 5528 5541 5539 5558 5568 5586 5595 5599 5602 5605 5608 5611 5613 5613 5612 5610 5607 5606 5604 5602 5599 5597 5595 5592 5590 5588 5586 5583 5582 5580 5579 5577 5576 5575 5574 5572 5571 5569 5567 5565 5563 5561 5558 5554
5523 5515 5509 5510 5507 5519 5537 5538 5554 5573 5584 5590 5594 5595 5596 5598 5601 5603 5604 5605 5603 5601 5599 5597 5596 5593 5591 5588 5586 5584 5582 5579 5578 5575 5572 5570 5568 5566 5565 5564 5563 5562 5560 5558 5557 5555 5552 5549 5546
5512 5513 5505 5508 5508 5516 5529 5530 5553 5571 5578 5582 5586 5587 5588 5589 5593 5596 5598 5598 5598 5596 5593 5591 5590 5587 5584 5582 5579 5577 5575 5572 5570 5567 5565 5563 5561 5559 5557 5555 5554 5553 5552 5550 5548 5547 5544 5541 5538
5503 5503 5507 5498 5497 5506 5514 5528 5550 5563 5567 5570 5573 5575 5578 5580 5584 5587 5589 5590 5590 5589 5587 5585 5583 5580 5578 5575 5573 5570 5567 5564 5562 5559 5558 5555 5553 5551 5549 5547 5545 5544 5543 5541 5540 5538 5536 5533 5530
5497 5498 5491 5492 5497 5508 5521 5524 5533 5548 5554 5559 5561 5563 5567 5571 5574 5576 5578 5581 5582 5582 5580 5577 5576 5574 5571 5568 5565 5563 5560 5557 5555 5552 5550 5548 5545 5543 5540 5538 5536 5535 5534 5533 5531 5529 5528 5525 5522
5484 5486 5485 5482 5489 5497 5506 5520 5536 5540 5546 5548 5550 5553 5556 5559 5562 5565 5567 5569 5571 5570 5569 5568 5566 5564 5562 5560 5558 5555 5552 5550 5547 5544 5542 5540 5538 5535 5533 5531 5529 5528 5526 5525 5523 5521 5519 5516 5513
5479 5478 5474 5477 5475 5480 5490 5508 5531 5532 5536 5538 5539 5542 5545 5549 5551 5552 5554 5555 5557 5558 5558 5557 5556 5555 5553 5552 5549 5547 5544 5542 5539 5537 5535 5533 5530 5527 5525 5523 5521 5520 5519 5517 5515 5512 5511 5508 5505